Wind_Speed
11 11 11 11 10 11 12 11 10 10 10 10 8 8 10 9 8 9 9 10 11 10 9 10 10 11 13 12 11 12 13 13 14 13 13 13 12 12 11 11 11 10 10 10 9 9 9 9 9 9 10 10 10 10 10 10 10 10 10 10 10 10 10 10 10 10 10 11 11 11 11 11 12 12 13 13 13 14 14 15 14 14 13 13 13
11 11 11 10 10 11 11 10 10 9 10 9 9 9 9 9 9 9 10 11 11 10 9 9 9 10 12 12 10 11 12 12 12 13 13 14 13 12 12 11 11 10 10 11 10 10 11 11 11 11 11 12 12 11 11 11 11 11 11 11 11 11 11 11 11 12 12 13 13 14 13 13 13 13 13 14 14 14 15 15 15 14 14 14 14
11 11 11 10 10 11 10 10 10 9 10 9 9 10 9 9 10 10 11 12 11 10 10 9 9 9 10 12 10 8 10 10 10 12 12 13 13 13 12 11 11 10 10 11 11 11 12 13 13 12 12 12 11 11 11 12 11 11 11 11 11 12 12 12 13 13 14 15 15 15 14 14 14 14 14 15 15 15 15 15 15 15 14 14 14
11 11 10 10 11 11 10 10 10 10 10 10 9 9 9 9 11 11 10 10 10 10 10 8 8 7 8 10 10 7 7 9 9 10 11 11 12 12 13 12 11 11 11 11 11 12 13 13 12 12 11 11 10 10 11 12 12 12 12 13 13 13 14 14 14 15 15 15 15 14 14 14 14 14 15 15 15 15 15 15 15 15 15 14 14
10 10 10 10 10 10 9 9 10 10 11 10 9 9 10 10 11 10 9 9 9 10 9 8 7 7 7 9 10 7 6 7 7 8 8 9 10 11 13 12 11 12 12 12 12 12 12 12 12 11 11 11 11 11 12 12 12 13 13 14 15 15 15 15 15 15 15 14 14 13 13 13 13 14 14 14 14 14 15 15 15 15 15 15 15
10 9 9 9 10 10 9 10 10 11 10 10 9 10 10 10 9 9 9 8 9 8 7 7 7 7 8 8 9 7 4 5 6 6 6 7 8 9 11 11 11 11 11 12 12 12 12 12 12 11 11 12 12 12 13 13 13 13 14 15 15 15 15 15 14 14 14 13 13 13 12 12 12 12 12 13 13 13 14 14 15 15 15 16 16
9 9 9 9 9 10 9 10 10 10 9 9 9 9 8 8 8 9 9 9 8 8 7 6 6 7 7 8 8 7 4 4 5 5 5 6 6 7 8 8 9 10 11 11 11 11 11 11 11 12 12 12 12 13 13 13 13 14 14 14 14 14 14 14 13 13 13 13 12 12 12 12 12 12 12 12 12 13 13 14 15 15 16 16 16
9 8 9 8 8 9 9 9 9 9 9 9 9 9 8 9 9 10 11 10 10 9 8 7 7 6 7 8 8 8 6 4 4 4 4 4 5 6 6 6 7 8 9 9 9 10 10 11 11 11 11 11 12 12 12 13 13 13 13 13 13 13 13 12 12 12 12 12 12 12 13 13 13 13 13 13 13 13 14 14 15 15 16 16 16
8 8 9 8 8 9 9 9 9 9 10 10 11 10 10 10 11 12 12 12 12 12 11 10 8 7 8 8 9 9 8 6 5 4 4 3 4 5 4 5 6 7 7 6 7 8 8 8 9 9 9 10 10 11 11 11 11 11 11 11 11 11 11 11 11 11 12 12 12 13 13 13 13 13 13 13 13 14 14 15 15 15 16 16 16
8 8 9 8 8 9 8 8 10 11 11 12 12 11 11 11 12 13 14 14 14 14 14 14 12 10 10 10 10 10 9 8 7 5 4 3 3 3 4 4 4 5 5 4 5 6 6 6 7 7 8 8 9 9 9 9 9 9 9 9 9 9 10 11 11 12 12 12 13 13 13 13 13 13 13 13 13 13 14 14 15 16 16 16 16
8 9 9 9 8 8 8 9 11 12 12 12 12 11 11 12 13 14 15 15 16 16 16 16 15 13 12 11 11 11 9 9 8 7 6 5 3 3 4 3 3 4 4 4 4 4 5 5 6 6 7 7 7 7 8 8 8 8 8 8 8 9 10 11 12 12 12 13 13 13 13 13 13 13 13 13 14 14 14 14 15 16 16 16 17
8 8 9 8 8 8 9 10 11 12 12 12 12 11 11 13 14 15 15 16 16 16 16 15 15 14 13 13 12 11 10 10 10 9 9 7 6 6 5 4 4 4 4 4 4 4 4 5 5 5 6 6 6 7 7 7 7 7 7 8 9 9 10 11 11 11 12 12 12 12 13 13 14 14 14 14 14 15 15 15 16 16 16 17 17
8 8 8 8 8 8 9 10 11 12 13 13 12 11 12 13 14 14 15 15 15 16 15 15 15 15 14 13 13 12 11 11 11 11 10 9 9 8 7 7 6 5 5 5 4 4 5 5 5 5 6 6 6 6 7 7 7 7 7 8 9 9 10 10 10 10 11 11 11 12 13 13 14 14 14 14 15 15 15 16 16 17 18 18 18
8 7 7 8 8 9 9 9 10 12 13 13 12 12 12 12 13 13 14 14 14 14 14 14 14 15 14 13 13 13 13 13 12 12 11 10 10 9 8 8 9 8 7 6 6 5 5 6 5 5 6 6 6 6 7 7 7 7 8 8 9 9 9 10 10 11 11 11 12 12 13 13 14 14 15 15 15 15 16 16 17 17 18 19 19
7 7 7 7 7 8 8 8 9 12 12 11 12 12 11 11 12 12 13 14 14 14 13 13 13 13 14 13 13 13 14 14 14 14 13 11 11 11 10 9 9 9 8 8 7 7 6 6 6 5 6 5 6 6 6 7 7 8 8 8 9 9 10 11 11 12 12 13 13 13 14 14 14 15 15 15 15 16 16 16 17 17 18 18 19
7 7 7 6 7 7 8 8 9 11 11 10 11 11 11 11 11 11 12 12 12 12 12 12 12 12 13 12 12 13 13 13 13 13 13 12 12 12 12 11 10 10 10 9 8 7 6 6 5 5 5 5 5 6 6 7 8 8 8 9 9 10 11 12 12 13 13 14 14 14 14 15 14 15 15 14 15 15 16 16 17 17 18 19 20
7 6 6 6 6 7 7 8 8 9 10 10 11 11 10 10 9 9 10 11 10 10 10 10 10 11 11 12 12 12 12 12 11 11 11 11 10 10 10 11 11 10 9 8 7 7 6 5 5 5 6 6 6 6 6 7 8 8 8 9 10 10 11 11 12 13 13 14 14 15 15 15 14 13 13 13 14 14 15 16 17 18 18 19 21
7 7 6 5 5 6 6 6 7 8 9 10 10 10 10 9 9 8 9 10 10 9 9 8 8 9 10 10 11 11 11 11 11 10 10 10 9 9 9 8 8 8 7 7 6 6 5 5 5 6 6 6 6 6 6 7 7 8 8 9 10 10 11 11 12 12 13 14 15 15 15 14 13 12 12 13 13 14 15 16 17 18 19 20 21
7 7 6 5 4 4 5 5 5 6 8 9 10 9 10 9 8 8 9 9 9 10 10 9 10 10 10 10 10 10 10 10 10 10 9 9 8 9 9 8 8 8 7 6 5 5 5 5 6 6 7 7 7 6 6 6 7 7 8 9 9 10 11 11 12 13 14 15 16 16 15 13 12 12 12 13 14 15 17 18 19 20 21 22 24
7 7 6 5 4 4 4 4 4 5 6 8 8 9 9 8 8 8 8 9 9 9 10 10 11 11 11 11 11 11 10 10 10 10 10 9 9 9 8 7 7 7 6 5 5 5 5 5 6 7 7 8 7 6 6 6 7 7 8 9 9 10 11 12 13 14 16 17 17 17 15 13 12 12 13 14 16 17 19 20 21 23 24 26 28
7 6 6 5 4 3 3 4 4 5 5 6 6 7 8 7 7 7 7 7 8 9 9 10 11 11 12 11 11 11 11 11 11 11 11 11 11 11 10 9 9 7 6 5 6 5 5 6 6 7 7 6 5 5 6 7 8 8 9 9 10 11 12 13 14 15 17 18 19 18 16 13 12 13 14 15 17 19 20 22 24 26 28 31 33
7 6 5 4 3 2 3 3 4 5 5 5 5 6 6 6 6 6 6 6 6 8 8 9 10 10 11 10 10 11 11 11 11 12 12 12 12 12 12 11 11 10 9 8 8 7 6 6 6 7 6 5 5 4 5 7 8 9 10 10 11 12 13 14 15 16 17 18 19 19 16 14 13 14 15 16 18 20 23 25 27 29 32 34 37
8 6 5 3 2 1 2 3 4 4 5 5 4 5 5 5 4 4 4 5 5 6 7 7 8 9 9 9 9 10 10 11 11 11 11 11 12 12 11 11 11 10 10 9 8 7 6 6 6 6 6 6 6 6 6 7 8 10 11 11 12 13 14 15 16 16 17 18 18 19 17 15 14 15 17 18 20 22 25 27 29 31 33 36 38
7 6 5 3 2 1 1 2 3 4 5 5 4 4 4 4 4 3 3 3 3 3 5 5 6 7 8 8 8 9 9 10 10 11 11 11 11 11 10 9 9 8 8 9 9 8 8 8 7 6 6 7 7 8 9 9 10 11 12 13 14 14 15 16 17 17 18 18 19 19 18 16 16 16 18 20 21 23 25 27 29 31 34 36 39
6 6 5 4 3 2 2 2 3 4 4 5 5 5 5 4 4 4 2 1 1 1 2 3 4 5 6 7 7 7 8 9 9 10 11 12 12 11 10 9 8 8 8 8 8 9 9 9 9 8 8 9 9 10 11 12 13 13 14 15 16 17 17 18 19 19 20 20 20 20 19 18 17 17 18 20 22 23 25 27 29 32 34 36 39
5 6 6 4 4 3 3 3 3 3 4 5 6 6 6 5 5 4 3 2 1 1 1 2 3 4 4 5 5 6 7 7 8 9 10 11 12 11 11 10 9 9 8 8 8 9 10 10 11 11 11 11 12 13 13 14 14 15 15 16 17 18 19 20 21 21 22 22 23 22 21 20 18 18 19 20 22 24 25 27 29 32 34 36 38
4 5 5 4 3 4 4 4 4 4 4 4 5 6 7 7 6 5 5 4 4 3 3 2 3 3 4 4 5 5 5 6 7 8 10 11 11 11 12 12 11 10 10 10 10 10 11 12 13 13 12 13 14 14 15 15 15 15 15 16 18 19 20 21 22 23 24 25 25 25 23 22 21 19 20 21 22 24 26 28 30 32 34 36 38
6 6 6 5 4 4 5 5 5 5 5 5 5 6 7 7 7 7 6 5 6 6 5 4 4 5 5 5 5 6 6 6 7 8 8 9 10 10 11 11 12 12 12 12 12 12 11 12 12 13 13 14 14 14 14 14 15 15 16 17 18 19 21 23 24 26 26 27 26 25 24 23 22 21 21 22 23 25 26 28 30 32 34 36 38
8 8 8 8 7 7 7 7 7 7 6 6 6 6 6 7 7 8 7 7 7 7 8 7 6 6 6 6 6 7 8 8 7 7 8 9 9 9 10 10 11 11 12 12 13 12 12 12 12 12 13 14 14 15 15 15 15 16 17 18 20 21 22 24 26 27 26 25 25 24 24 24 23 22 22 23 24 26 27 29 31 33 35 37 39
9 9 9 10 10 10 10 10 10 10 9 9 8 7 7 7 7 8 8 8 8 8 9 9 9 9 8 8 7 8 8 8 8 8 8 8 8 8 9 9 10 11 11 12 13 13 13 13 13 13 13 14 14 14 15 16 17 18 19 20 21 22 23 24 25 25 24 23 23 23 23 23 23 23 23 24 25 26 28 29 31 33 35 36 38
9 9 10 10 11 11 11 11 11 12 12 11 11 10 9 9 8 9 9 9 9 9 9 10 11 11 11 11 10 9 9 8 9 9 8 7 7 7 8 9 9 10 11 11 12 13 13 12 12 12 13 14 15 15 16 17 19 20 21 22 23 23 23 24 24 23 22 21 21 22 22 23 24 24 24 25 26 27 28 30 31 33 34 36 37
9 9 10 10 11 12 12 12 12 13 13 13 13 12 11 11 11 10 10 11 11 10 10 11 12 13 13 13 13 12 11 10 9 9 9 9 8 8 8 9 9 10 11 11 10 10 11 12 12 12 13 14 16 17 18 19 20 21 22 23 24 24 24 25 25 23 22 21 21 22 23 24 24 25 25 26 27 28 29 30 31 33 34 35 37
9 9 10 10 10 11 12 12 13 13 14 14 14 14 13 13 13 12 12 12 12 12 12 12 13 14 14 15 15 15 14 13 12 11 11 10 10 10 10 10 11 11 12 12 12 11 11 12 13 14 15 15 17 18 20 20 21 22 23 24 25 25 25 25 25 25 24 23 23 24 25 25 26 26 26 27 28 29 30 31 31 32 34 35 37
8 8 9 9 9 9 10 11 12 13 14 15 16 16 15 14 14 14 14 14 14 14 14 14 14 15 15 16 17 17 16 16 15 14 14 13 12 12 13 12 12 12 13 13 14 15 15 14 14 15 17 17 18 19 20 21 22 22 23 25 25 25 26 26 27 27 27 26 26 26 27 28 28 28 28 28 29 29 30 31 31 32 33 35 37
8 8 8 8 8 8 9 10 11 13 14 14 15 16 16 15 15 14 14 14 15 15 15 16 16 16 16 17 18 18 17 17 16 16 16 16 15 15 15 15 15 14 14 15 15 16 18 18 18 17 17 18 19 19 20 21 22 23 23 24 25 26 26 27 28 29 29 29 29 29 29 30 30 30 29 29 29 30 31 31 32 32 34 35 37
8 8 7 7 7 8 9 10 10 12 13 12 13 13 14 15 14 14 14 14 15 15 16 17 17 17 17 18 19 19 18 18 17 17 17 18 17 17 17 17 17 17 17 18 18 18 18 20 21 21 20 20 21 22 22 21 22 23 25 25 26 27 27 28 29 31 32 32 31 31 32 32 33 32 31 31 30 31 31 32 32 33 34 35 37
8 8 7 7 7 7 9 9 9 9 10 10 10 11 12 12 13 13 12 13 14 15 16 17 17 18 18 18 19 19 18 17 18 19 18 18 19 19 20 20 19 19 19 20 21 21 21 21 22 24 24 24 23 24 24 24 23 24 26 28 29 29 29 30 30 32 34 34 33 33 33 34 35 35 34 33 32 32 32 33 33 33 34 35 36
9 8 8 8 7 6 7 7 7 7 7 7 8 9 9 10 11 11 10 10 10 12 13 15 16 17 17 18 18 18 17 17 18 19 20 20 20 20 21 22 22 22 22 22 22 23 24 25 25 25 26 26 27 27 27 27 27 26 27 30 32 32 33 33 33 34 36 37 36 35 35 36 37 37 37 36 34 33 33 33 34 34 34 34 35
10 9 9 8 7 6 5 5 6 5 5 5 6 7 7 7 8 8 8 8 8 8 9 11 13 13 14 15 16 16 17 16 17 18 20 21 21 22 22 22 24 25 25 24 24 24 25 27 27 27 28 28 29 29 30 30 31 30 30 31 33 34 35 36 37 37 38 40 41 40 38 37 37 38 38 38 37 35 34 34 34 34 34 34 35
10 10 10 8 7 6 5 4 5 5 4 4 4 5 5 5 6 7 8 9 10 10 10 11 11 12 12 13 13 13 15 16 17 18 19 21 22 23 23 24 24 25 26 27 27 26 26 27 28 29 30 30 30 32 33 33 34 34 34 34 35 36 37 39 40 41 42 43 44 44 42 39 38 38 38 39 39 37 35 34 33 34 33 33 34
10 10 10 9 7 7 6 5 5 4 4 4 3 4 4 4 5 7 8 10 11 12 12 12 12 13 13 13 13 13 13 15 17 18 19 21 22 24 25 26 26 27 28 29 29 29 28 28 29 31 32 32 32 34 35 36 36 38 38 38 38 39 40 41 43 44 44 45 47 48 47 44 42 41 39 38 38 37 36 35 33 33 33 32 34
11 10 10 9 8 8 7 6 5 4 4 4 4 4 4 5 5 6 7 9 11 12 12 12 12 13 14 14 14 14 14 14 16 18 19 20 22 24 25 26 27 28 29 30 30 30 30 30 30 32 33 33 34 36 37 37 38 39 40 42 42 42 42 43 45 47 47 47 47 49 49 47 45 43 40 38 37 37 36 35 33 32 32 33 34
12 11 11 10 9 8 7 6 5 5 4 4 4 5 6 7 6 6 6 8 10 11 12 12 13 13 14 14 14 14 14 14 15 16 18 19 20 22 24 25 26 27 29 30 31 31 32 32 32 32 33 33 36 38 38 39 40 40 41 42 44 45 44 44 46 48 49 48 48 50 50 48 45 43 39 36 36 37 37 36 34 33 32 32 33
14 13 12 11 10 9 8 7 6 6 6 6 6 7 9 9 9 7 6 7 8 10 10 11 13 14 14 14 14 14 15 16 16 17 18 19 20 20 22 23 24 25 27 28 30 31 32 32 32 32 32 34 37 39 40 41 42 41 41 43 45 46 46 46 47 49 50 49 49 50 51 49 46 43 39 36 36 37 37 38 37 34 31 29 31
14 14 13 12 10 10 9 8 7 7 7 7 8 9 10 11 12 10 8 7 8 8 9 11 12 14 15 15 16 16 17 18 19 20 21 22 22 22 23 24 25 26 27 28 29 29 30 31 31 31 32 34 36 38 40 42 42 42 43 44 45 47 47 48 49 51 51 51 50 50 51 49 46 43 41 39 37 37 39 39 38 35 30 27 29
13 13 14 13 11 10 9 10 9 8 8 8 9 11 11 12 12 11 10 10 9 8 9 10 11 13 14 16 16 17 19 20 21 22 23 24 25 26 26 26 27 27 29 31 31 31 31 32 32 32 33 35 36 38 40 42 43 43 44 46 47 48 49 50 51 52 53 53 50 49 51 51 47 44 44 43 40 40 42 41 39 36 30 26 27
14 15 15 14 12 10 9 10 10 10 10 11 11 12 12 12 13 12 13 13 11 10 10 11 12 14 16 17 18 19 20 22 23 25 26 27 28 29 29 29 29 29 31 32 34 34 35 35 35 35 35 36 38 38 40 42 44 45 46 47 48 48 50 52 52 53 54 54 50 49 51 52 49 46 46 45 43 42 43 41 39 36 29 25 27
16 15 13 12 12 12 11 10 10 9 11 12 12 12 12 12 13 14 14 15 15 15 15 15 16 17 18 20 21 22 23 24 25 27 28 29 30 31 31 31 32 32 32 33 35 37 38 39 40 40 39 40 40 40 41 43 44 46 47 48 47 48 49 51 52 53 53 52 50 49 49 50 48 47 48 46 44 44 43 39 38 35 27 24 26
15 14 13 13 13 13 13 11 9 9 10 11 12 12 11 11 13 13 15 16 17 18 19 21 22 22 22 23 25 26 27 28 29 30 31 32 32 32 32 33 34 34 34 34 35 37 39 41 42 43 43 43 43 43 44 45 46 47 49 49 48 48 50 51 52 52 53 52 50 49 47 46 47 48 49 46 44 45 43 40 39 34 26 24 26
15 14 14 14 13 13 12 11 11 10 10 11 12 12 12 13 14 15 17 18 19 20 22 24 25 25 26 26 28 29 30 31 32 33 35 36 36 35 35 35 35 33 33 35 37 39 40 42 43 44 44 44 45 45 46 47 48 48 49 49 49 50 51 51 50 51 52 50 46 46 47 47 47 48 48 47 46 45 42 42 41 34 25 23 26
15 14 13 13 12 12 12 12 12 12 11 12 13 13 14 15 17 18 20 21 21 22 23 24 26 28 29 29 30 31 32 33 34 35 38 39 39 39 39 40 39 36 34 36 39 40 41 42 42 44 45 45 46 47 47 47 48 48 47 47 49 50 50 50 50 50 49 46 43 46 48 48 47 48 49 48 48 47 43 42 40 32 24 24 25
Wind_Direction
83 80 76 73 71 70 68 65 62 59 61 65 63 59 60 63 65 64 67 71 69 64 66 71 74 79 79 71 65 71 73 70 71 72 71 73 73 74 72 69 66 64 69 71 70 72 73 71 68 66 64 61 55 50 48 47 48 50 48 46 44 42 40 36 33 30 27 25 23 21 17 12 8 6 5 4 3 2 2 2 2 1 358 355 352
84 80 77 74 72 70 68 65 63 58 56 58 56 55 55 58 61 62 67 67 64 61 66 69 68 73 79 77 66 68 75 72 72 74 73 72 72 74 75 72 69 63 63 65 64 63 64 65 64 62 63 62 58 54 53 54 54 53 51 49 47 45 43 39 35 32 30 29 28 25 23 19 15 12 8 6 6 5 4 4 4 5 4 2 0
87 85 82 79 75 70 64 60 58 55 53 51 50 50 50 53 55 56 60 61 62 63 65 68 69 72 80 83 75 67 77 78 75 74 71 69 70 73 75 74 74 71 66 63 63 61 61 63 64 63 63 63 61 57 55 56 56 54 52 50 47 44 41 38 34 32 31 30 28 26 23 20 17 15 12 9 8 7 6 5 5 5 6 6 5
90 89 86 80 75 69 62 57 52 49 47 43 42 42 42 47 49 51 54 56 60 63 63 64 67 74 82 90 90 78 77 81 77 74 71 66 66 69 71 71 72 74 72 67 63 62 62 64 65 64 62 60 58 55 55 55 54 52 50 47 46 44 40 36 33 31 31 29 27 25 22 19 17 15 14 13 11 10 8 7 6 5 5 4 4
92 89 84 79 74 68 61 56 52 47 44 39 37 37 37 40 43 48 49 49 57 60 62 61 60 68 77 88 93 87 79 85 81 76 75 70 65 64 67 67 68 70 73 72 69 65 65 66 65 63 60 57 54 52 52 52 51 49 47 45 44 43 40 37 33 31 30 28 27 25 22 19 17 15 13 12 10 8 7 6 5 5 4 3 1
93 87 82 78 74 71 63 56 51 47 41 34 34 37 38 40 41 47 46 43 52 57 59 61 57 56 63 74 87 92 84 87 90 82 78 78 70 64 63 64 65 68 70 72 73 71 70 68 65 62 59 57 55 53 53 52 50 47 46 44 43 42 40 37 34 31 29 26 24 22 19 17 15 13 10 7 6 3 1 1 1 2 1 360 359
92 87 82 76 72 71 65 58 53 48 41 32 34 39 44 50 49 49 45 38 40 45 48 55 57 54 55 60 73 87 85 73 81 82 76 76 75 70 66 66 66 66 66 68 70 72 70 66 63 60 57 56 55 54 53 52 49 47 44 42 40 39 37 34 30 27 24 21 18 14 11 10 9 8 6 3 1 358 356 355 356 356 355 355 355
90 86 80 73 70 70 65 59 54 48 41 34 37 42 48 53 52 50 46 38 34 35 35 37 46 55 58 57 61 73 80 78 73 68 65 65 74 76 71 73 73 68 65 65 66 68 67 65 62 58 56 54 54 53 52 50 48 45 42 38 36 34 32 29 25 22 19 15 12 9 5 4 3 2 0 359 357 355 352 352 352 351 350 349 349
92 88 82 75 71 70 67 61 53 44 38 36 38 40 47 52 53 53 50 44 39 38 39 39 44 53 61 61 59 58 61 71 76 72 66 51 60 71 69 71 74 72 69 65 63 62 60 61 58 55 54 53 54 54 52 51 50 48 44 39 33 30 28 26 23 21 18 15 11 9 7 5 3 1 359 357 355 353 350 349 348 347 346 345 345
99 91 84 77 71 69 67 60 49 39 36 38 40 41 49 56 58 57 55 51 47 43 44 48 53 58 63 61 59 56 51 56 64 72 81 72 58 65 63 58 65 74 77 72 68 64 59 56 53 50 49 50 52 54 53 52 51 49 47 42 35 30 27 24 22 21 19 16 13 11 10 8 6 4 3 1 359 356 353 350 348 346 343 342 341
102 92 84 78 74 70 64 57 46 38 38 43 46 47 54 61 62 61 59 55 52 49 47 50 57 63 68 68 64 62 57 55 57 62 73 81 76 67 63 50 47 59 66 66 65 65 62 56 50 48 44 46 50 53 54 53 50 46 43 41 36 32 28 25 22 20 19 17 14 12 9 8 7 6 6 5 4 2 359 357 354 350 346 342 340
101 92 87 81 76 70 64 58 50 43 44 49 51 54 61 67 67 65 61 57 54 52 51 53 60 64 68 71 69 67 63 59 60 63 66 69 67 65 67 66 52 47 45 45 47 48 52 54 51 48 43 43 46 50 50 48 45 43 40 37 35 32 30 27 24 21 19 17 14 11 7 5 5 4 4 3 2 2 1 0 359 355 350 346 342
102 93 89 85 79 72 67 63 56 47 47 52 55 58 63 69 70 67 62 59 56 54 53 54 59 63 64 66 68 68 66 62 62 67 67 65 64 64 67 73 72 61 51 50 51 47 51 55 52 48 45 42 42 41 41 39 37 36 35 34 32 30 28 26 24 21 18 16 12 8 4 1 359 358 358 358 357 357 357 357 356 353 350 346 344
108 98 89 83 80 76 69 63 57 51 48 52 59 62 64 68 68 66 62 58 56 54 52 53 56 60 61 61 63 65 65 63 61 64 68 69 73 75 69 68 73 71 67 66 64 59 59 63 61 57 55 49 43 37 32 29 27 27 27 27 27 27 24 22 19 16 13 11 8 4 0 356 353 351 351 351 351 351 352 353 352 350 346 344 342
115 105 91 78 75 75 71 60 53 53 51 52 61 67 68 68 65 62 60 56 52 51 50 49 51 55 57 57 58 61 63 63 62 64 66 67 74 84 84 78 77 77 73 70 70 68 65 66 68 67 65 58 48 38 30 25 22 22 21 20 21 19 18 15 12 9 7 5 2 359 356 353 350 348 348 349 349 349 350 350 348 346 342 340 339
123 111 96 82 71 68 66 56 47 49 52 53 59 66 72 73 68 63 60 52 43 41 42 43 45 49 52 53 55 57 59 59 61 64 66 66 66 73 78 78 78 77 74 71 72 74 73 72 72 66 63 58 47 35 28 25 24 21 14 11 13 13 11 8 4 2 360 358 357 355 353 352 350 349 349 350 350 350 350 348 346 344 342 341 340
132 119 104 90 77 68 63 58 49 45 47 50 54 62 69 72 70 66 58 47 37 35 36 35 37 42 44 46 49 52 54 54 56 58 61 65 64 63 65 67 69 71 73 73 71 69 67 64 62 57 52 47 38 28 23 23 21 16 9 5 6 6 3 359 356 354 354 354 354 354 354 353 353 354 354 355 354 352 351 349 348 346 345 344 343
144 132 117 101 86 78 70 65 59 47 44 47 49 56 64 66 63 60 53 45 40 39 40 37 36 38 38 39 41 45 48 49 50 51 52 54 58 60 58 57 60 62 63 65 63 61 55 43 40 42 39 34 26 20 18 18 14 8 5 2 359 358 355 352 352 352 353 355 355 356 356 356 357 359 359 358 356 354 352 351 350 349 348 346 344
154 141 128 114 98 88 80 70 63 53 47 45 43 47 58 62 59 53 50 49 47 45 44 43 43 44 42 41 40 41 41 42 42 43 44 44 45 51 51 47 51 53 50 46 46 51 49 36 30 21 13 12 11 11 11 9 5 1 0 357 353 351 350 349 351 353 356 357 357 358 358 359 1 2 1 359 357 355 353 352 352 351 350 349 348
159 145 137 129 115 100 87 75 67 57 51 48 43 41 48 57 60 56 55 54 51 46 43 42 44 46 47 46 46 44 42 40 39 39 38 36 35 37 38 34 35 42 47 41 31 36 36 26 18 5 358 358 360 1 0 358 354 351 352 351 349 349 350 351 353 356 359 359 358 358 358 359 1 2 360 358 356 354 354 353 354 354 355 354 354
164 155 152 146 127 105 85 75 69 59 51 49 48 46 44 49 57 60 63 61 52 44 41 40 40 41 43 46 48 48 46 44 43 43 42 40 38 35 30 26 20 15 20 17 4 1 3 354 348 347 346 348 353 352 348 347 345 344 345 345 345 347 350 353 355 358 359 359 358 357 356 357 358 359 357 355 354 354 354 354 356 357 358 357 357
173 173 171 158 139 105 72 57 54 54 49 39 41 49 48 46 51 60 68 68 55 43 36 35 35 37 38 42 48 50 50 49 47 47 46 45 44 41 36 33 28 16 10 9 356 342 336 332 335 340 339 339 343 341 338 339 337 336 338 340 342 345 348 351 354 356 357 358 358 356 354 352 352 352 352 352 352 353 354 355 357 358 358 358 357
183 185 189 173 155 120 57 38 29 37 43 36 29 39 49 50 51 61 69 66 56 43 34 29 29 31 34 38 46 51 51 51 50 47 45 42 39 38 33 32 32 24 17 16 6 352 348 349 351 347 342 338 333 328 329 329 328 329 332 334 338 342 345 348 350 352 354 355 356 355 352 347 345 346 347 348 349 351 353 354 355 356 356 357 356
194 191 199 201 203 257 346 19 14 17 29 31 24 28 39 44 42 49 68 71 60 42 30 24 22 26 31 34 41 50 52 50 49 46 42 37 32 28 22 18 19 17 16 15 9 3 2 360 357 351 343 336 329 325 325 323 325 327 329 331 335 340 343 344 345 348 350 352 353 353 350 344 340 341 342 344 346 349 351 352 352 353 355 356 355
203 197 203 220 242 272 300 328 352 4 14 17 14 15 23 29 29 26 30 48 55 37 22 12 7 13 22 28 32 41 49 47 41 39 36 32 29 25 18 8 1 359 3 6 3 1 358 352 346 342 338 335 328 323 322 323 326 327 328 331 334 338 341 341 342 344 346 348 349 349 347 341 336 335 337 340 342 345 347 349 349 351 353 354 354
204 203 212 232 251 268 297 313 327 343 354 2 2 1 7 14 16 10 360 343 323 310 314 324 331 344 0 11 13 21 38 40 30 26 24 22 23 24 24 18 8 359 355 355 356 355 353 350 346 340 336 333 328 324 325 325 324 325 328 332 333 336 339 339 340 341 342 343 343 344 343 339 334 332 333 336 338 342 344 346 347 349 351 353 353
203 208 225 245 262 271 291 312 322 330 336 341 346 347 352 360 2 360 352 336 321 309 293 285 288 301 315 330 340 350 7 17 15 16 15 12 12 15 19 22 21 16 5 360 2 356 349 347 345 340 337 336 332 329 329 326 323 323 327 330 332 335 336 336 337 338 339 339 339 339 339 338 334 331 331 332 335 338 341 343 344 347 350 352 352
215 221 237 254 270 276 283 299 309 317 324 324 326 330 336 345 350 352 349 337 323 313 304 291 281 279 285 294 307 319 329 342 353 1 3 3 4 6 11 15 19 22 16 11 12 9 359 350 343 338 339 340 336 332 329 326 325 327 329 332 334 335 334 333 334 335 337 337 336 337 337 336 334 331 329 330 332 336 338 340 343 345 348 350 351
225 233 243 253 263 271 274 280 288 293 297 301 304 311 317 326 335 339 343 341 330 317 308 299 290 283 280 282 290 300 311 322 333 341 347 352 357 3 8 10 11 13 13 10 11 13 11 3 352 346 344 342 338 335 332 330 331 333 334 335 335 334 332 331 333 336 338 337 336 336 336 335 334 331 328 328 330 333 336 338 341 344 346 349 350
228 236 244 251 257 264 269 272 278 282 282 282 285 291 297 304 312 319 327 333 332 323 313 305 297 291 287 285 286 292 300 309 317 325 335 343 350 358 3 7 9 7 7 6 4 6 10 11 6 0 357 352 348 345 342 339 338 339 338 336 335 335 334 333 336 341 343 343 341 339 338 337 335 332 328 327 329 331 334 337 340 342 345 347 348
232 239 245 253 258 262 266 271 275 279 280 280 279 280 283 288 293 299 306 314 318 319 314 307 300 296 293 291 289 290 296 303 309 314 320 329 340 350 356 359 1 2 3 6 6 5 5 8 9 6 1 356 354 355 354 351 348 346 344 342 340 340 339 339 342 347 349 348 345 343 341 339 337 333 329 327 328 331 333 336 339 341 343 345 346
244 249 254 258 264 269 271 272 273 276 279 280 279 278 278 279 283 286 290 296 302 306 307 305 301 296 292 291 290 291 293 297 302 307 312 318 327 337 345 350 351 353 355 360 4 4 359 354 354 356 356 353 352 353 357 359 357 354 351 350 349 348 346 347 349 352 352 350 347 344 342 340 337 334 331 329 329 330 332 334 337 340 341 343 344
254 260 264 265 267 270 273 274 275 275 276 277 277 276 275 275 277 280 282 286 291 295 297 298 297 295 291 289 288 289 292 294 298 303 307 312 320 326 332 338 342 345 347 348 348 350 350 348 344 344 347 350 351 351 353 357 359 358 355 354 354 354 352 351 352 354 353 350 347 343 340 339 338 335 332 330 329 329 330 333 336 338 339 340 342
259 265 269 268 265 265 268 273 275 275 274 274 273 274 274 274 274 277 279 282 285 288 289 291 293 294 292 288 286 286 289 292 296 301 305 309 314 318 322 327 331 335 338 339 338 338 339 341 342 341 340 341 343 345 346 348 350 351 352 352 353 354 352 351 351 352 353 352 349 345 341 338 337 335 333 331 330 329 329 331 334 335 336 338 340
264 267 266 265 265 265 266 269 273 276 276 275 275 275 276 276 276 277 280 282 284 285 285 287 289 290 291 289 287 286 286 290 294 298 302 305 309 313 316 319 321 324 328 330 331 331 331 332 334 336 336 334 333 335 338 340 340 339 341 345 347 348 348 347 346 347 348 349 349 348 344 341 337 334 332 331 330 329 328 330 331 332 335 338 339
265 267 266 262 262 267 272 274 275 277 279 280 280 279 279 281 281 281 283 284 286 287 286 286 287 287 288 289 288 287 287 289 292 294 298 302 305 308 310 311 314 316 319 321 322 323 325 326 327 329 329 329 327 327 330 334 334 333 334 336 339 340 340 341 341 341 342 344 346 347 345 343 340 336 332 330 330 329 328 328 329 331 334 337 338
263 269 272 268 267 272 277 281 280 276 279 282 282 282 282 283 285 285 285 285 285 286 286 286 287 288 289 289 289 289 288 288 290 293 297 300 303 305 306 306 308 309 312 314 315 317 319 321 323 324 325 326 325 325 326 328 330 331 331 332 334 335 335 335 335 335 336 338 341 342 342 341 340 338 334 330 329 328 327 327 329 331 333 335 336
262 267 270 273 279 279 277 279 278 274 273 275 278 281 283 286 290 292 294 294 292 292 293 294 296 295 294 293 293 292 291 288 289 292 296 300 302 302 303 303 305 305 306 306 308 311 314 316 318 320 321 323 323 323 323 324 325 328 329 329 330 331 331 331 331 331 331 332 333 335 337 337 337 337 335 332 328 327 326 328 329 330 331 333 335
261 266 271 278 284 282 274 269 268 265 261 261 268 278 286 293 300 307 313 319 323 322 318 316 315 313 310 306 303 299 295 290 288 289 293 298 301 302 302 302 302 303 303 302 304 306 307 310 312 314 316 319 319 319 320 321 322 324 326 326 326 327 328 328 328 328 328 328 329 331 333 334 334 335 334 332 329 325 325 327 328 328 329 331 333
262 269 276 281 281 277 268 256 255 256 255 260 270 281 294 308 319 329 334 340 347 351 351 345 339 336 333 328 321 312 303 297 293 292 292 296 299 302 303 302 302 303 303 303 303 303 303 305 306 308 311 313 314 314 315 317 319 320 321 322 322 323 324 325 325 326 326 327 328 329 330 331 333 334 334 332 329 324 322 323 324 325 326 329 333
265 271 276 279 274 265 256 245 244 250 256 265 279 288 302 316 327 338 342 346 351 356 360 0 358 355 353 349 343 333 321 311 304 300 298 298 300 303 304 305 307 307 306 305 304 303 303 303 303 304 307 309 310 310 311 313 315 316 317 319 319 320 321 323 323 324 324 326 327 327 328 328 328 330 331 331 329 325 320 318 320 322 324 328 332
266 268 271 272 266 257 252 244 239 244 252 257 269 282 297 310 320 334 342 346 350 353 356 360 2 2 360 356 352 347 340 330 320 314 310 307 306 305 305 306 307 307 306 305 305 304 303 303 302 302 304 306 306 305 307 309 310 312 314 315 316 318 319 321 322 322 323 324 326 326 325 326 328 330 330 328 326 325 319 314 314 316 321 327 330
265 263 265 267 262 255 251 248 247 252 257 264 281 295 306 315 323 336 348 350 349 350 351 353 354 354 352 350 347 344 341 335 328 325 321 318 315 311 309 308 308 307 306 305 303 303 303 303 302 301 303 303 301 302 304 306 306 308 311 312 313 315 317 319 319 319 320 322 324 324 323 327 332 335 333 328 324 323 320 314 309 309 316 324 327
261 261 262 262 259 255 251 249 250 257 269 283 299 308 313 318 320 331 348 350 348 347 345 344 344 341 338 335 332 330 328 325 323 321 320 319 318 316 313 311 310 309 308 306 305 305 305 304 303 303 302 300 299 301 302 303 305 308 309 310 310 312 315 316 316 316 317 320 322 322 323 328 334 337 336 333 328 325 321 314 307 305 309 318 322
257 263 263 257 252 251 252 252 251 254 265 281 295 303 308 311 312 319 329 335 338 337 334 334 333 330 327 324 321 320 318 316 316 316 315 315 314 313 311 310 310 309 307 306 307 307 307 306 306 307 305 302 301 302 303 304 307 309 309 309 310 311 313 314 314 314 316 319 321 321 323 328 333 334 335 334 331 328 325 316 306 301 304 312 319
252 257 258 252 244 239 239 246 252 258 265 274 283 292 298 301 302 305 312 317 321 321 321 323 321 318 316 314 312 312 310 309 309 308 307 307 306 305 305 306 306 305 304 304 306 305 304 304 304 305 304 302 302 303 304 306 307 308 309 308 309 310 311 311 312 313 315 316 318 321 323 327 331 332 332 333 332 331 328 319 308 301 303 310 317
246 244 246 248 248 243 234 232 237 243 253 263 273 282 289 293 294 297 303 307 308 309 310 309 307 305 304 303 303 302 302 303 303 300 299 298 297 297 298 299 299 300 300 302 303 302 302 302 302 302 300 300 301 301 302 304 306 306 307 308 309 310 309 309 311 313 313 314 316 320 321 324 328 331 333 334 333 331 328 321 312 305 303 308 314
241 239 239 241 242 242 238 231 224 226 237 248 257 266 273 279 285 292 298 301 303 306 307 305 303 301 299 298 298 297 299 300 299 297 296 295 294 295 295 294 294 293 295 298 300 300 300 300 299 299 299 299 300 301 301 302 304 305 306 308 311 311 309 310 311 312 312 312 316 319 319 320 324 328 331 332 331 330 328 324 317 308 302 305 312
238 237 237 235 232 231 234 234 231 229 234 242 248 255 263 272 278 284 289 294 298 302 303 302 300 298 296 296 295 296 298 298 298 298 297 297 296 296 294 293 293 293 296 297 296 296 296 296 297 297 298 298 298 299 300 300 302 304 306 308 311 310 309 310 310 310 311 312 316 318 318 318 320 325 329 329 327 329 329 325 318 309 299 303 309
236 235 233 232 230 227 227 230 232 233 238 246 251 255 262 269 273 276 280 285 289 293 294 294 293 292 292 292 292 294 296 296 296 297 298 298 298 298 297 295 294 297 301 299 294 293 293 295 296 296 297 298 297 296 298 299 301 303 304 308 310 308 308 309 309 311 311 311 313 316 318 318 320 324 327 325 323 326 327 323 317 307 297 301 307
236 236 234 233 230 227 226 226 230 235 241 250 257 261 264 268 271 274 276 279 282 283 283 284 286 288 289 289 289 291 291 291 291 292 295 297 298 299 299 297 297 302 302 296 293 295 294 294 297 297 297 297 297 296 297 298 299 300 302 306 308 307 306 306 307 311 312 311 311 314 316 318 319 323 325 322 322 326 326 322 316 303 292 298 304
Height
5941 5941 5941 5941 5941 5941 5941 5941 5941 5941 5941 5941 5940 5940 5940 5939 5939 5938 5937 5936 5935 5936 5936 5935 5936 5936 5936 5936 5935 5935 5935 5935 5935 5935 5935 5935 5935 5935 5935 5935 5935 5935 5935 5935 5935 5935 5935 5935 5935 5935 5935 5935 5935 5936 5936 5936 5936 5935 5935 5935 5935 5935 5934 5934 5934 5933 5933 5932 5932 5931 5931 5931 5930 5929 5928 5928 5927 5926 5925 5924 5924 5923 5922 5921 5921
5942 5942 5942 5942 5942 5942 5942 5942 5942 5942 5941 5941 5941 5940 5940 5939 5938 5938 5937 5936 5935 5936 5936 5935 5935 5935 5936 5936 5936 5935 5936 5935 5935 5935 5935 5935 5936 5936 5936 5936 5936 5936 5936 5936 5936 5936 5936 5936 5936 5936 5936 5936 5936 5936 5936 5936 5936 5936 5936 5936 5935 5935 5935 5934 5934 5933 5933 5932 5932 5932 5931 5930 5930 5929 5928 5928 5927 5926 5925 5924 5923 5923 5922 5921 5920
5943 5943 5943 5944 5943 5943 5943 5943 5943 5943 5942 5941 5941 5940 5940 5939 5938 5938 5937 5936 5936 5936 5935 5935 5936 5936 5936 5937 5936 5936 5936 5936 5936 5936 5936 5936 5937 5937 5937 5937 5937 5937 5937 5937 5937 5937 5938 5937 5937 5937 5938 5937 5937 5937 5937 5937 5937 5937 5936 5936 5936 5935 5935 5935 5934 5934 5933 5933 5932 5932 5931 5930 5930 5929 5928 5927 5927 5926 5925 5924 5923 5922 5921 5920 5920
5944 5944 5944 5944 5944 5943 5943 5943 5943 5943 5942 5942 5941 5941 5940 5939 5938 5937 5937 5937 5936 5936 5935 5935 5936 5936 5936 5937 5937 5936 5936 5937 5937 5937 5937 5937 5938 5938 5937 5937 5938 5938 5938 5938 5938 5938 5939 5939 5938 5938 5939 5939 5938 5938 5938 5938 5937 5937 5937 5937 5936 5936 5936 5935 5935 5934 5933 5933 5932 5932 5931 5930 5929 5929 5928 5927 5926 5925 5925 5924 5923 5922 5921 5920 5919
5944 5944 5944 5944 5944 5944 5944 5944 5943 5943 5942 5942 5942 5941 5940 5939 5938 5938 5938 5937 5936 5936 5936 5936 5936 5936 5936 5937 5937 5937 5936 5937 5937 5937 5938 5938 5939 5938 5938 5938 5938 5939 5939 5939 5939 5939 5940 5939 5939 5939 5939 5939 5939 5939 5939 5938 5938 5938 5937 5937 5937 5937 5936 5936 5935 5934 5934 5933 5932 5931 5931 5930 5929 5928 5927 5927 5926 5925 5924 5923 5922 5921 5920 5919 5919
5944 5944 5944 5944 5944 5944 5944 5944 5943 5943 5943 5943 5942 5941 5940 5940 5939 5939 5938 5937 5937 5937 5937 5937 5937 5936 5936 5937 5938 5938 5937 5937 5938 5938 5938 5939 5939 5939 5939 5939 5939 5940 5940 5940 5940 5940 5941 5940 5940 5940 5940 5940 5940 5939 5939 5939 5939 5938 5938 5938 5937 5937 5937 5936 5935 5935 5934 5933 5932 5931 5930 5930 5929 5928 5927 5926 5925 5924 5923 5922 5921 5921 5920 5919 5918
5945 5945 5945 5944 5944 5944 5944 5944 5944 5944 5944 5944 5943 5943 5942 5942 5941 5939 5938 5937 5937 5937 5937 5937 5937 5937 5937 5937 5938 5939 5938 5938 5938 5938 5939 5940 5940 5939 5940 5940 5940 5940 5940 5941 5941 5941 5941 5941 5941 5941 5941 5940 5940 5940 5939 5939 5939 5939 5938 5938 5938 5937 5937 5936 5935 5935 5934 5933 5932 5931 5930 5929 5928 5927 5927 5926 5925 5924 5923 5922 5921 5920 5919 5919 5918
5945 5945 5945 5944 5944 5944 5944 5944 5945 5945 5944 5944 5944 5944 5943 5942 5940 5939 5938 5938 5938 5938 5937 5937 5937 5937 5937 5937 5938 5939 5939 5939 5939 5939 5939 5940 5940 5940 5940 5941 5941 5941 5941 5941 5941 5942 5942 5942 5942 5941 5941 5941 5940 5940 5940 5939 5939 5939 5938 5938 5938 5937 5937 5936 5935 5934 5934 5933 5932 5931 5930 5929 5928 5927 5926 5925 5924 5923 5922 5921 5921 5920 5919 5918 5918
5945 5945 5945 5945 5945 5945 5945 5945 5945 5945 5945 5944 5943 5943 5943 5941 5940 5939 5939 5939 5938 5938 5937 5937 5937 5937 5937 5937 5937 5938 5939 5940 5940 5940 5939 5939 5939 5940 5940 5941 5941 5941 5941 5942 5942 5942 5942 5942 5942 5942 5942 5941 5941 5940 5940 5940 5939 5939 5938 5938 5937 5937 5936 5936 5935 5934 5933 5932 5931 5931 5930 5929 5928 5927 5926 5925 5924 5923 5922 5921 5920 5919 5918 5918 5917
5946 5946 5946 5946 5946 5946 5946 5946 5945 5945 5945 5944 5943 5943 5943 5942 5941 5940 5940 5940 5939 5938 5938 5937 5937 5937 5937 5937 5938 5938 5939 5939 5940 5940 5940 5940 5940 5940 5940 5941 5941 5941 5942 5942 5942 5942 5942 5942 5942 5942 5942 5941 5941 5940 5940 5940 5939 5939 5938 5938 5937 5937 5936 5936 5935 5934 5933 5932 5931 5930 5929 5928 5927 5926 5925 5924 5923 5922 5921 5920 5920 5919 5918 5917 5916
5947 5947 5947 5947 5947 5946 5946 5946 5946 5946 5945 5944 5944 5944 5943 5943 5942 5941 5941 5941 5940 5940 5939 5938 5938 5938 5938 5938 5938 5939 5939 5939 5939 5939 5940 5940 5940 5941 5941 5941 5941 5941 5942 5942 5942 5942 5942 5942 5942 5942 5942 5941 5941 5940 5940 5940 5939 5938 5938 5937 5937 5936 5936 5935 5935 5934 5933 5932 5931 5930 5929 5928 5927 5926 5925 5924 5923 5922 5921 5920 5919 5918 5917 5916 5915
5947 5948 5948 5948 5947 5947 5947 5947 5947 5947 5946 5945 5945 5945 5945 5944 5943 5942 5942 5942 5942 5941 5941 5940 5940 5939 5939 5939 5939 5939 5939 5939 5939 5940 5940 5940 5940 5941 5941 5941 5941 5941 5941 5942 5942 5942 5942 5942 5942 5942 5942 5941 5941 5940 5940 5939 5939 5938 5937 5937 5936 5936 5935 5935 5934 5933 5933 5932 5931 5930 5929 5927 5926 5925 5924 5923 5922 5921 5920 5919 5918 5918 5917 5916 5914
5948 5948 5948 5948 5948 5948 5948 5948 5948 5947 5947 5946 5945 5946 5945 5945 5944 5944 5943 5943 5943 5943 5942 5942 5942 5941 5941 5940 5940 5940 5940 5939 5939 5940 5940 5940 5940 5941 5941 5942 5942 5942 5942 5942 5942 5942 5942 5942 5942 5942 5942 5941 5941 5940 5940 5939 5938 5938 5937 5937 5936 5936 5935 5934 5934 5933 5932 5931 5930 5929 5928 5927 5926 5925 5924 5923 5922 5921 5920 5918 5917 5917 5916 5915 5914
5948 5948 5948 5949 5949 5949 5949 5948 5949 5948 5947 5947 5947 5946 5946 5946 5945 5945 5945 5944 5944 5944 5944 5944 5943 5943 5942 5942 5942 5941 5941 5940 5940 5940 5940 5940 5940 5941 5941 5942 5942 5942 5942 5942 5942 5942 5942 5942 5942 5942 5942 5941 5941 5940 5940 5939 5938 5938 5937 5937 5936 5935 5935 5934 5933 5932 5931 5930 5929 5928 5927 5926 5925 5924 5923 5922 5921 5920 5919 5918 5917 5916 5915 5914 5913
5949 5949 5949 5949 5949 5949 5949 5949 5949 5949 5948 5948 5948 5947 5947 5947 5946 5946 5946 5945 5945 5945 5945 5945 5945 5944 5944 5943 5943 5942 5942 5942 5941 5941 5941 5941 5941 5941 5942 5942 5942 5942 5942 5943 5943 5942 5942 5942 5942 5941 5941 5941 5941 5940 5940 5939 5939 5938 5937 5937 5936 5935 5934 5934 5933 5932 5931 5930 5929 5928 5927 5926 5925 5924 5923 5922 5921 5920 5919 5918 5917 5915 5914 5913 5912
5950 5950 5950 5950 5950 5950 5950 5950 5949 5949 5949 5949 5949 5948 5948 5948 5947 5947 5947 5946 5946 5946 5946 5946 5945 5945 5945 5945 5944 5944 5943 5943 5943 5943 5943 5942 5941 5941 5942 5942 5942 5942 5943 5942 5943 5942 5942 5942 5941 5941 5941 5941 5940 5940 5939 5939 5939 5938 5937 5937 5936 5935 5934 5933 5933 5932 5931 5930 5929 5928 5927 5925 5924 5923 5922 5921 5920 5919 5918 5917 5916 5915 5914 5912 5911
5950 5950 5950 5950 5951 5951 5951 5950 5950 5950 5950 5950 5949 5949 5949 5948 5948 5948 5948 5948 5948 5947 5947 5946 5946 5946 5946 5946 5946 5945 5944 5944 5944 5944 5944 5943 5943 5943 5942 5942 5942 5942 5942 5942 5942 5942 5942 5942 5942 5941 5941 5940 5940 5940 5939 5939 5938 5938 5937 5936 5936 5935 5934 5933 5932 5932 5931 5929 5928 5927 5926 5924 5923 5922 5922 5921 5920 5919 5918 5917 5916 5914 5913 5911 5910
5950 5950 5951 5951 5951 5951 5952 5952 5952 5952 5951 5951 5950 5950 5949 5949 5949 5949 5949 5949 5949 5948 5948 5947 5947 5947 5947 5947 5947 5946 5946 5945 5945 5945 5944 5944 5944 5944 5944 5943 5943 5943 5942 5942 5942 5942 5942 5942 5942 5941 5941 5941 5940 5940 5939 5939 5938 5938 5937 5936 5935 5935 5934 5933 5932 5931 5930 5929 5927 5926 5925 5923 5922 5922 5921 5920 5919 5918 5917 5916 5914 5913 5911 5910 5908
5950 5951 5951 5951 5952 5952 5952 5952 5952 5952 5952 5951 5951 5951 5950 5950 5950 5950 5949 5949 5950 5950 5949 5948 5948 5948 5947 5947 5947 5947 5946 5946 5946 5946 5945 5945 5945 5945 5944 5944 5944 5943 5943 5942 5942 5942 5942 5941 5941 5941 5941 5941 5940 5940 5939 5938 5938 5937 5937 5936 5935 5935 5934 5933 5932 5931 5929 5928 5926 5925 5924 5923 5922 5921 5920 5919 5918 5917 5916 5914 5913 5911 5910 5908 5906
5950 5951 5952 5952 5952 5952 5952 5953 5953 5953 5952 5952 5952 5952 5951 5951 5951 5950 5950 5950 5951 5950 5950 5949 5949 5948 5948 5948 5948 5947 5947 5947 5946 5946 5946 5946 5945 5945 5945 5944 5944 5944 5944 5943 5942 5942 5942 5941 5941 5941 5940 5940 5940 5939 5939 5938 5938 5937 5937 5936 5935 5934 5933 5932 5931 5930 5929 5927 5926 5924 5923 5922 5921 5920 5919 5918 5917 5916 5914 5913 5911 5909 5907 5905 5903
5951 5951 5952 5952 5952 5953 5953 5953 5953 5953 5953 5953 5953 5953 5952 5952 5951 5951 5951 5951 5951 5951 5950 5950 5950 5949 5949 5949 5948 5948 5948 5947 5947 5947 5947 5946 5946 5945 5945 5944 5943 5943 5943 5943 5942 5942 5942 5941 5941 5941 5940 5939 5939 5939 5939 5938 5938 5938 5937 5936 5935 5934 5933 5932 5931 5929 5928 5927 5925 5924 5923 5921 5920 5919 5918 5917 5916 5914 5913 5911 5909 5907 5905 5903 5900
5951 5951 5952 5952 5953 5953 5953 5953 5954 5954 5954 5953 5953 5953 5953 5953 5952 5952 5952 5951 5951 5951 5951 5951 5950 5950 5950 5950 5949 5949 5948 5948 5948 5947 5947 5947 5947 5946 5946 5945 5944 5943 5943 5943 5942 5942 5942 5942 5941 5940 5940 5940 5939 5939 5939 5938 5938 5938 5937 5936 5935 5934 5933 5931 5930 5929 5927 5926 5925 5923 5922 5921 5920 5918 5917 5916 5914 5913 5911 5909 5907 5905 5902 5900 5898
5951 5952 5952 5953 5953 5953 5954 5954 5954 5954 5954 5954 5954 5954 5954 5953 5953 5952 5952 5952 5951 5951 5951 5951 5951 5951 5951 5950 5950 5950 5949 5949 5948 5948 5948 5948 5947 5947 5947 5946 5946 5945 5944 5944 5943 5943 5942 5942 5941 5941 5940 5940 5939 5939 5939 5938 5938 5937 5937 5936 5935 5934 5932 5931 5929 5928 5927 5925 5924 5923 5921 5920 5918 5917 5915 5914 5912 5910 5909 5907 5905 5903 5900 5898 5895
5952 5952 5952 5953 5953 5954 5954 5954 5954 5954 5955 5954 5954 5954 5954 5954 5953 5953 5952 5952 5952 5952 5952 5952 5951 5951 5951 5951 5951 5950 5950 5949 5949 5949 5948 5948 5948 5947 5947 5947 5946 5946 5945 5944 5944 5943 5942 5942 5941 5941 5940 5940 5940 5939 5939 5938 5938 5937 5936 5935 5934 5933 5932 5930 5929 5928 5926 5925 5923 5922 5920 5918 5917 5915 5914 5912 5910 5909 5907 5905 5903 5901 5899 5896 5893
5952 5952 5953 5953 5953 5954 5954 5954 5954 5954 5955 5954 5954 5954 5954 5954 5953 5953 5953 5952 5952 5952 5952 5952 5952 5951 5951 5951 5951 5951 5951 5950 5950 5950 5949 5949 5948 5948 5947 5947 5946 5946 5946 5945 5944 5943 5942 5942 5941 5941 5940 5940 5939 5939 5938 5937 5937 5936 5935 5934 5933 5932 5931 5930 5928 5927 5925 5924 5922 5921 5919 5917 5916 5914 5912 5910 5909 5907 5906 5904 5902 5899 5897 5894 5891
5952 5952 5953 5953 5953 5953 5954 5954 5954 5954 5954 5954 5953 5953 5953 5953 5953 5953 5953 5953 5952 5952 5952 5952 5952 5951 5951 5951 5951 5951 5951 5951 5951 5950 5950 5949 5949 5948 5948 5947 5947 5946 5945 5945 5945 5944 5943 5942 5941 5940 5940 5939 5939 5938 5937 5936 5936 5935 5934 5933 5932 5931 5930 5929 5927 5926 5925 5923 5921 5920 5918 5916 5914 5912 5910 5909 5907 5906 5904 5902 5900 5898 5895 5892 5889
5952 5952 5952 5952 5953 5953 5953 5953 5953 5954 5954 5954 5953 5953 5953 5953 5953 5953 5953 5953 5952 5952 5952 5952 5952 5951 5951 5951 5951 5951 5951 5951 5951 5951 5950 5950 5949 5948 5948 5948 5947 5946 5945 5944 5944 5943 5942 5941 5941 5940 5939 5939 5938 5937 5936 5935 5935 5934 5933 5932 5931 5930 5929 5928 5926 5925 5923 5922 5920 5918 5916 5914 5912 5910 5909 5907 5905 5904 5902 5900 5898 5896 5893 5890 5887
5951 5951 5951 5952 5952 5952 5952 5953 5953 5953 5953 5953 5953 5953 5952 5952 5952 5952 5952 5952 5952 5952 5952 5951 5951 5951 5951 5951 5951 5951 5951 5951 5951 5950 5950 5950 5949 5948 5948 5947 5947 5946 5944 5943 5943 5943 5942 5941 5941 5940 5939 5939 5938 5937 5936 5935 5934 5933 5932 5931 5930 5929 5928 5926 5925 5923 5922 5920 5918 5916 5914 5912 5910 5908 5907 5905 5903 5901 5900 5898 5896 5894 5891 5887 5884
5950 5950 5951 5951 5951 5951 5951 5952 5952 5952 5952 5952 5952 5953 5952 5952 5952 5952 5952 5952 5952 5951 5951 5951 5951 5951 5951 5950 5950 5951 5951 5950 5950 5950 5949 5949 5948 5948 5947 5947 5946 5946 5945 5944 5943 5943 5942 5941 5941 5940 5939 5938 5938 5936 5935 5934 5933 5932 5931 5930 5929 5928 5926 5925 5923 5922 5920 5918 5916 5914 5912 5910 5908 5906 5905 5903 5901 5899 5897 5895 5893 5891 5888 5885 5881
5949 5950 5950 5950 5950 5950 5950 5950 5951 5951 5951 5951 5951 5952 5952 5952 5952 5951 5951 5951 5951 5951 5951 5950 5950 5950 5950 5950 5950 5950 5950 5950 5949 5949 5948 5948 5947 5947 5946 5946 5945 5945 5945 5944 5943 5942 5942 5941 5940 5939 5938 5938 5937 5936 5935 5933 5932 5931 5930 5929 5928 5927 5926 5924 5922 5920 5918 5916 5914 5912 5910 5908 5906 5904 5903 5901 5899 5896 5894 5892 5890 5888 5885 5882 5879
5948 5948 5948 5949 5949 5949 5949 5949 5949 5949 5949 5950 5950 5950 5951 5951 5951 5951 5950 5950 5950 5950 5950 5950 5949 5949 5949 5949 5949 5948 5948 5948 5948 5948 5947 5947 5947 5946 5946 5945 5945 5944 5944 5943 5942 5941 5941 5940 5940 5939 5938 5937 5936 5935 5934 5932 5931 5930 5929 5928 5927 5926 5924 5922 5920 5919 5916 5914 5912 5910 5908 5906 5904 5902 5900 5898 5896 5894 5892 5890 5888 5885 5883 5880 5877
5946 5947 5947 5947 5947 5947 5948 5948 5948 5948 5948 5948 5948 5949 5949 5949 5950 5950 5950 5949 5949 5949 5949 5948 5948 5948 5948 5948 5947 5947 5947 5947 5947 5946 5946 5946 5946 5945 5945 5944 5944 5943 5943 5942 5942 5941 5940 5939 5939 5938 5937 5936 5935 5933 5932 5931 5930 5929 5928 5927 5925 5924 5922 5921 5919 5917 5915 5913 5911 5909 5906 5904 5902 5900 5898 5896 5894 5891 5889 5887 5885 5883 5880 5878 5875
5945 5945 5946 5946 5946 5946 5946 5946 5946 5946 5946 5946 5946 5947 5947 5948 5948 5948 5948 5948 5948 5948 5948 5947 5947 5947 5946 5946 5946 5945 5945 5945 5945 5945 5945 5945 5944 5944 5943 5943 5942 5942 5941 5941 5940 5940 5940 5939 5937 5936 5935 5934 5933 5932 5930 5930 5929 5928 5927 5926 5924 5923 5921 5919 5918 5916 5914 5912 5910 5907 5905 5903 5901 5899 5896 5894 5891 5889 5887 5885 5883 5880 5878 5876 5873
5943 5944 5944 5945 5945 5945 5945 5944 5944 5944 5944 5944 5944 5945 5945 5946 5947 5947 5947 5947 5947 5947 5947 5946 5946 5945 5945 5944 5944 5944 5944 5944 5944 5944 5944 5943 5943 5942 5942 5941 5940 5940 5940 5939 5938 5938 5937 5937 5936 5935 5934 5933 5932 5931 5929 5928 5927 5927 5926 5924 5923 5921 5920 5918 5916 5915 5913 5911 5909 5906 5904 5901 5899 5897 5894 5892 5890 5887 5885 5883 5880 5878 5876 5873 5870
5941 5942 5942 5943 5943 5943 5943 5943 5943 5943 5943 5943 5943 5943 5943 5944 5945 5945 5946 5946 5946 5946 5945 5945 5945 5945 5944 5943 5943 5943 5943 5943 5943 5943 5942 5942 5941 5941 5940 5940 5939 5938 5938 5938 5937 5936 5935 5935 5934 5934 5933 5932 5931 5930 5929 5928 5926 5925 5924 5923 5921 5920 5918 5916 5914 5912 5911 5910 5908 5905 5903 5900 5897 5895 5893 5890 5888 5885 5883 5880 5878 5876 5873 5870 5867
5939 5940 5941 5941 5941 5941 5941 5941 5941 5941 5941 5941 5941 5941 5942 5942 5943 5943 5944 5944 5944 5944 5944 5944 5943 5943 5943 5943 5942 5942 5942 5942 5942 5942 5942 5941 5941 5940 5939 5938 5938 5937 5936 5936 5935 5935 5934 5933 5932 5932 5931 5930 5929 5928 5927 5926 5925 5923 5922 5920 5919 5918 5916 5914 5913 5910 5909 5907 5906 5903 5901 5898 5896 5893 5891 5888 5886 5883 5880 5878 5876 5873 5870 5867 5865
5937 5938 5939 5939 5939 5940 5939 5939 5940 5940 5940 5939 5939 5940 5940 5940 5940 5941 5942 5942 5942 5942 5942 5942 5942 5942 5942 5941 5941 5941 5941 5941 5941 5940 5940 5940 5940 5939 5938 5937 5937 5936 5935 5934 5933 5932 5932 5931 5930 5929 5928 5928 5927 5926 5925 5924 5923 5922 5919 5917 5916 5915 5914 5913 5911 5909 5907 5905 5904 5902 5900 5897 5894 5891 5888 5886 5884 5881 5878 5876 5873 5870 5867 5865 5863
5936 5936 5937 5937 5938 5938 5938 5938 5938 5938 5938 5938 5938 5938 5938 5938 5938 5939 5939 5940 5940 5940 5940 5940 5940 5940 5940 5940 5940 5939 5940 5940 5940 5939 5939 5938 5938 5938 5937 5936 5935 5935 5934 5933 5932 5931 5930 5929 5928 5927 5926 5925 5924 5923 5922 5921 5920 5919 5918 5916 5914 5913 5911 5910 5908 5907 5904 5902 5901 5900 5898 5895 5892 5890 5887 5884 5881 5879 5876 5873 5870 5868 5865 5863 5860
5934 5934 5935 5935 5935 5935 5936 5936 5936 5936 5936 5936 5936 5936 5937 5937 5937 5937 5938 5938 5939 5939 5939 5939 5939 5939 5939 5939 5938 5938 5938 5938 5938 5938 5937 5936 5936 5936 5936 5935 5934 5933 5932 5931 5931 5930 5929 5927 5926 5925 5924 5923 5921 5920 5919 5918 5916 5916 5915 5914 5912 5910 5909 5907 5905 5904 5902 5899 5898 5896 5895 5893 5890 5888 5885 5882 5879 5876 5873 5871 5868 5866 5863 5861 5858
5932 5932 5933 5933 5933 5933 5934 5934 5934 5934 5935 5935 5935 5935 5936 5936 5936 5936 5936 5937 5937 5938 5938 5938 5937 5937 5937 5937 5937 5937 5937 5936 5936 5936 5936 5935 5934 5934 5933 5933 5932 5931 5930 5929 5928 5928 5927 5926 5924 5923 5922 5921 5919 5917 5916 5915 5914 5912 5912 5911 5909 5908 5906 5904 5902 5900 5898 5896 5894 5892 5891 5890 5888 5885 5882 5879 5876 5873 5870 5868 5866 5864 5862 5858 5855
5930 5930 5931 5931 5931 5931 5931 5932 5932 5933 5933 5934 5934 5934 5935 5935 5935 5936 5936 5936 5936 5937 5937 5937 5937 5936 5936 5936 5936 5936 5935 5935 5934 5934 5934 5933 5933 5932 5931 5931 5930 5930 5929 5927 5926 5925 5924 5924 5922 5920 5919 5918 5917 5915 5913 5912 5911 5909 5908 5907 5906 5904 5903 5901 5898 5896 5895 5893 5890 5887 5886 5885 5884 5882 5880 5877 5874 5871 5867 5865 5864 5862 5859 5856 5853
5928 5928 5928 5929 5929 5929 5929 5930 5931 5931 5932 5933 5933 5933 5934 5934 5935 5935 5935 5935 5935 5935 5935 5936 5936 5936 5935 5935 5935 5934 5934 5934 5933 5932 5932 5932 5931 5930 5929 5928 5928 5927 5926 5925 5924 5923 5922 5921 5920 5918 5917 5916 5914 5912 5911 5909 5908 5906 5904 5903 5902 5900 5899 5897 5895 5892 5890 5889 5887 5884 5882 5881 5880 5878 5876 5874 5872 5868 5865 5862 5860 5858 5856 5853 5850
5925 5926 5926 5926 5927 5927 5928 5928 5929 5930 5931 5931 5932 5932 5932 5933 5933 5934 5934 5934 5934 5934 5934 5934 5934 5934 5934 5934 5934 5933 5933 5933 5932 5931 5931 5930 5929 5928 5927 5926 5925 5924 5923 5921 5920 5920 5919 5918 5917 5916 5914 5913 5911 5908 5907 5906 5904 5903 5902 5899 5897 5896 5895 5894 5892 5889 5887 5886 5884 5880 5878 5878 5877 5874 5872 5870 5868 5864 5861 5858 5856 5854 5852 5850 5847
5922 5923 5924 5924 5924 5925 5926 5927 5928 5928 5929 5929 5930 5930 5930 5931 5931 5932 5933 5933 5933 5933 5933 5933 5933 5932 5932 5932 5932 5932 5931 5931 5930 5930 5929 5928 5927 5926 5925 5924 5923 5921 5920 5918 5917 5917 5916 5915 5914 5913 5912 5910 5908 5906 5904 5902 5900 5899 5898 5896 5894 5892 5891 5890 5889 5886 5884 5882 5880 5877 5874 5873 5872 5870 5868 5866 5863 5860 5857 5853 5850 5849 5848 5846 5845
5920 5920 5921 5922 5922 5923 5924 5925 5926 5926 5927 5927 5928 5928 5929 5929 5929 5930 5931 5931 5931 5931 5931 5931 5931 5931 5930 5930 5930 5930 5929 5929 5928 5927 5926 5925 5924 5923 5922 5921 5920 5919 5917 5915 5915 5914 5912 5911 5910 5910 5909 5907 5905 5903 5901 5898 5897 5896 5894 5893 5890 5889 5888 5886 5884 5882 5880 5878 5876 5873 5870 5869 5867 5866 5864 5862 5859 5857 5854 5850 5846 5844 5844 5843 5841
5918 5918 5918 5919 5920 5921 5922 5923 5923 5924 5925 5926 5926 5926 5927 5927 5927 5927 5928 5928 5929 5929 5929 5930 5929 5929 5929 5928 5928 5927 5926 5926 5925 5924 5923 5922 5921 5920 5919 5918 5917 5915 5913 5912 5911 5910 5909 5908 5907 5906 5905 5903 5902 5900 5898 5895 5894 5892 5891 5889 5887 5885 5884 5882 5881 5879 5877 5875 5872 5870 5866 5864 5863 5862 5860 5858 5856 5853 5850 5847 5843 5841 5839 5839 5838
5915 5916 5916 5917 5918 5919 5920 5921 5921 5922 5923 5924 5924 5925 5925 5925 5924 5925 5925 5925 5926 5926 5927 5927 5927 5927 5926 5925 5925 5925 5924 5923 5922 5921 5920 5919 5917 5916 5915 5914 5913 5911 5910 5909 5907 5906 5905 5904 5903 5902 5901 5899 5898 5897 5895 5892 5890 5889 5887 5886 5884 5882 5880 5878 5877 5875 5873 5870 5869 5867 5863 5860 5859 5858 5856 5854 5851 5849 5847 5843 5840 5837 5836 5835 5834
5912 5913 5914 5915 5915 5916 5917 5918 5919 5921 5922 5922 5922 5923 5923 5923 5922 5922 5922 5922 5923 5923 5924 5924 5924 5924 5923 5922 5922 5921 5921 5920 5919 5917 5916 5914 5913 5912 5911 5910 5908 5907 5907 5906 5903 5901 5900 5899 5897 5897 5896 5895 5893 5892 5890 5888 5886 5884 5882 5882 5881 5878 5875 5873 5872 5871 5868 5866 5865 5863 5860 5857 5854 5853 5852 5849 5847 5844 5842 5839 5836 5834 5832 5832 5830
5909 5910 5911 5912 5913 5914 5915 5916 5917 5918 5919 5920 5920 5921 5921 5921 5920 5920 5920 5920 5920 5920 5920 5920 5920 5920 5919 5919 5918 5917 5917 5916 5915 5913 5912 5910 5909 5908 5906 5905 5903 5903 5903 5902 5899 5897 5895 5894 5892 5891 5890 5889 5888 5887 5885 5883 5882 5880 5877 5877 5876 5873 5871 5869 5867 5865 5863 5862 5861 5858 5855 5853 5851 5849 5847 5845 5842 5840 5837 5835 5833 5830 5829 5828 5827
5906 5907 5908 5909 5910 5911 5912 5913 5915 5916 5917 5917 5918 5918 5918 5918 5918 5918 5917 5917 5918 5918 5917 5917 5916 5916 5915 5915 5914 5913 5912 5911 5910 5909 5907 5905 5904 5903 5902 5900 5898 5899 5899 5897 5894 5892 5891 5889 5887 5886 5885 5884 5883 5882 5880 5879 5877 5875 5873 5872 5870 5868 5866 5864 5862 5860 5858 5857 5856 5853 5850 5848 5846 5844 5842 5840 5838 5836 5833 5831 5829 5827 5825 5825 5824
5903 5905 5906 5907 5908 5909 5910 5911 5912 5913 5914 5914 5914 5915 5915 5915 5915 5914 5914 5915 5915 5915 5914 5913 5912 5912 5911 5911 5910 5909 5908 5907 5906 5904 5902 5900 5899 5898 5896 5894 5893 5894 5894 5890 5888 5887 5886 5884 5883 5881 5879 5878 5877 5876 5875 5874 5872 5871 5869 5867 5865 5862 5860 5859 5856 5854 5853 5853 5852 5849 5846 5844 5842 5840 5838 5835 5833 5831 5829 5827 5825 5823 5821 5821 5820